Location: Chicoutimi
(48.4330°N, 71.0670°W)
Time: 04:13:31
(UTC-04:00)

ISS - Visible Passes

Search period start: 27 March 2015 00:00
Search period end: 06 April 2015 00:00
Orbit: 396 x 406 km, 51.6° (Epoch: 26 March)

Date Brightness Start Highest point End Pass type
(mag) Time Alt. Az. Time Alt. Az. Time Alt. Az.
27 Mar -0.3 03:30:24 15° ENE 03:30:24 15° ENE 03:31:06 10° ENE visible
27 Mar -3.4 05:03:00 28° WNW 05:04:34 88° N 05:07:49 10° ESE visible
28 Mar -2.4 04:11:55 47° ENE 04:11:55 47° ENE 04:14:25 10° E visible
28 Mar -2.5 05:44:32 10° W 05:47:30 33° SW 05:50:26 10° SSE visible
29 Mar -3.3 04:53:33 44° WSW 04:54:13 54° SSW 04:57:23 10° SE visible
30 Mar -1.3 04:02:44 23° ESE 04:02:44 23° ESE 04:04:05 10° ESE visible
30 Mar -1.7 05:35:21 14° WSW 05:36:54 18° SW 05:39:09 10° S visible
31 Mar -1.8 04:44:46 23° S 04:44:46 23° S 04:46:29 10° SSE visible
03 Apr -1.2 20:19:13 10° SSE 20:19:57 12° SSE 20:19:57 12° SSE visible
04 Apr -2.5 20:59:57 10° SW 21:02:25 34° S 21:02:25 34° S visible
05 Apr -2.0 20:06:54 10° SSW 20:09:32 23° SE 20:11:53 12° E visible
05 Apr -2.1 21:42:25 10° WSW 21:44:30 36° WSW 21:44:30 36° WSW visible
